Location: Hains Lake
(37.8540°N, 99.8578°W)
Time: 03:20:41
(UTC+00:00)

Vanguard 2 Rocket - Pass Details

Date: 18 April 2021
Orbit: 553 x 3326 km, 32.9° (Epoch: 07 May)

Event Time Altitude Azimuth Distance (km) Brightness Sun altitude
Rises 20:33:10 0° 241° (WSW) 6,569 11.8 53.0°
Reaches altitude 10° 20:37:10 10° 239° (WSW) 5,800 11.8 52.4°
Maximum altitude 20:56:16 66° 162° (SSE) 3,512 10.8 49.3°
Drops below altitude 10° 21:14:35 10° 86° (E) 5,603 10.6 46.1°
Sets 21:18:21 0° 84° (E) 6,346 10.8 45.5°
